Orbital elements:
    C/2002 R3 (LONEOS)
Epoch 2003 June 10.0 TT = JDT 2452800.5
T 2003 June 13.42417 TT                                 MPC
q   3.8696939            (2000.0)            P               Q
z  -0.0008145      Peri.   45.06155     +0.95603487     +0.12955547
 +/-0.0000427      Node    54.29696     +0.07646737     -0.97621761
e   1.0031520      Incl.  161.09664     +0.28310787     -0.17382335
Residuals in seconds of arc
020904 699  0.4-  0.1+    020916 159  0.2-  0.4-    021105 704  0.6+  0.0
020904 699  0.1+  0.3-    020916 159  1.3-  0.0     021105 360  0.0   0.1-
020904 699  0.3+  0.6+    020918 360  0.5-  0.2+    021105 360  0.2-  0.0
020904 699  0.4-  0.5+    020918 360  0.4-  0.3+    021106 704  0.7-  0.5+
020905 118  0.3+  0.4-    020918 360  0.5-  0.2+    021106 704  0.3-  0.4+
020905 118  0.8+  0.1+    020925 J95  0.9-  0.8+    021106 704  0.4-  0.5+
020905 118  0.7+  1.6-    020925 J95  0.2+  0.2-    021106 704  0.2+  0.5+
020905 118  0.2-  0.7-    020925 J95  0.3+  0.0     021106 704  0.4-  0.5+
020905 850  1.4+  0.0     020925 J95  0.3+  0.6+    021106 367  0.0   0.5+
020905 850  1.2-  0.6+    020925 J95  0.2+  0.2+    021106 367  0.2+  0.7+
020905 850  0.3-  0.8+    020929 213  0.7-  0.4-    021106 367  0.1-  0.6+
020905 734  0.7+  0.3-    020929 213  0.3+  0.6-    021106 340  0.0   0.5-
020905 734  0.0   0.4-    020929 213  0.7+  0.7-    021106 340  0.4+  1.4-
020905 734  0.3-  0.0     020929 118  0.3+  0.4-    021106 340  0.5+  0.4-
020905 734  0.3+  0.4-    020929 118  0.0   0.6-    021106 340  0.2-  0.6-
020905 734  0.6-  0.1-    020929 118  0.1+  0.5-    021107 704  0.1-  0.2+
020905 704  0.2-  0.4+    020930 204  0.7-  0.4-    021107 704  0.2-  0.0
020905 704  0.3-  0.2+    020930 204  0.2+  0.4-    021107 704  0.0   0.2+
020905 704  0.2-  0.3-    020930 204  0.6-  1.1-    021107 704  0.0   0.1+
020905 704  0.2-  0.3-    020930 204  0.6-  0.5-    021107 704  0.4+  0.0
020905 704  0.2-  0.4-    020930 204  0.2-  0.7-    021107 213  1.3-  0.9+
020906 649  0.1-  0.1-    020930 204  0.3-  0.9-    021107 213  0.6-  0.1+
020906 649  0.1-  0.1+    021002 704  0.3-  0.2-    021107 213  1.1-  0.8-
020906 649  1.2-  1.0-    021002 704  0.1+  0.9-    021108 704  0.4-  0.1-
020907 850  0.4-  0.6-    021002 704  0.1-  0.6-    021108 704  0.4-  0.1-
020907 850  0.3-  0.1-    021002 704  0.7+  0.9-    021108 704  0.1-  0.1+
020907 850  0.1+  0.2+    021003 704  0.2+  0.4-    021108 704  0.2-  0.2-
020907 850  0.1-  0.4+    021003 704  0.6+  0.2-    021109 340  0.1+  0.2+
020907 704  0.2+  0.1+    021003 704  0.5+  0.3-    021109 340  0.1-  0.9-
020907 734  0.1+  0.1-    021003 704  0.4+  0.2-    021109 340  1.6+  0.3-
020907 704  0.0   0.0     021003 704  0.4+  0.3-    021109 340  0.5+  0.3+
020907 734  0.1-  0.4-    021004 J95  0.2-  0.5-    021109 349  0.1+  0.4-
020907 734  0.4-  0.4-    021004 J95  0.1+  0.6-    021109 349  0.0   0.3-
020907 704  0.0   0.0     021004 J95  0.0   0.1-    021110 A46  0.5+  0.5+
020907 704  0.2-  0.0     021004 J95  0.4+  0.1-    021110 A46  1.2-  0.4+
020908 246  0.1-  0.3-    021004 J95  0.6+  0.3-    021110 A46  0.5-  0.1-
020908 246  0.4+  0.2-    021005 360  0.2+  0.1+    021110 A46  0.1+  0.3-
020908 246  0.2+  0.1-    021005 360  0.4+  0.0     021110 A46  1.0-  0.0
020908 246  0.3+  0.4-    021006 850  0.3+  0.4-    021110 A46  0.6-  0.7-
020908 246  0.2+  0.3-    021006 850  0.6+  0.1-    021110 A46  0.5+  0.0
020908 246  0.1+  0.2-    021006 850  0.3+  0.4-    021110 A46  0.0   0.5-
020908 246  0.4+  0.2-    021007 699  0.2+  0.1+    021110 A46  0.3+  0.3+
020908 557  0.0   0.3-    021007 704  0.3+  0.3+    021110 A46  0.4+  0.1+
020908 557  0.4+  0.5-    021007 699  0.4+  0.1+    021110 A46  0.2+  0.2-
020908 848  1.1+  1.1+    021007 704  0.2+  0.6-    021110 213  0.3-  0.9+
020909 649  0.0   0.1-    021007 704  0.0   0.5-    021110 048  1.3-  0.2+
020909 649  0.1-  0.0     021007 699  0.3+  0.0     021110 213  0.7-  0.6-
020909 649  0.0   0.1+    021007 704  0.8+  0.4-    021110 048  0.6-  0.2+
020909 848  1.0-  0.7+    021007 699  0.4+  0.1-    021110 048  1.3-  0.2+
020909 848  0.4+  0.5+    021007 704  1.0+  0.3-    021110 213  0.8-  0.0
020909 848  0.4+  1.1-    021010 704  0.7-  0.2-    021110 048  1.3-  0.2-
020910 246  0.2+  0.1+    021010 704  0.1-  0.1+    021110 939  0.8-  0.0
020910 246  0.2+  0.1+    021010 704  0.2-  0.1+    021110 939  0.4-  0.3+
020910 246  0.0   0.2+    021010 704  0.1-  0.2+    021110 939  0.3+  0.4+
020910 246  0.0   0.2+    021010 349  0.1-  0.0     021111 670  0.1-  0.1+
020910 246  0.1-  0.4+    021010 349  0.2-  0.5-    021111 670  0.3-  0.1+
020910 246  0.1+  0.0     021010 349  0.5+  0.1+    021111 670  0.2-  0.2-
020910 246  0.1+  0.1+    021010 349  0.1-  0.1+    021112 704  0.3+  0.2+
020910 246  0.1+  0.3+    021010 355  0.5+  0.2-    021112 704  0.5+  0.5+
020910 557  0.2+  0.0     021010 355  0.3+  0.4-    021112 704  0.5+  0.4+
020910 557  0.0   0.0     021010 355  0.3+  0.6-    021112 704  0.2+  0.2+
020910 J95  1.0+  0.7-    021010 355  0.7+  0.8-    021112 704  0.2+  0.4+
020910 J95  0.5-  0.5-    021011 704  0.7-  0.3+    021112 360  0.3-  0.1-
020910 J95  1.2+  0.2-    021011 704  0.8-  0.5+    021112 360  0.0   0.0
020910 J95  0.1-  0.2+    021011 704  0.9-  0.2+    021112 048  0.2-  0.5-
020910 J95  0.5-  0.5+    021011 704  0.7-  0.4+    021112 048  0.6+  0.0
020910 J95  0.1-  0.4+    021011 704  0.7-  0.8+    021112 048  1.5+  0.5+
020910 J95  0.6+  0.3-    021011 360  0.2-  0.2-    021112 246  0.1+  0.2+
020910 850  0.4+  0.2+    021011 360  0.1-  0.2-    021112 246  0.2-  0.1+
020910 850  0.1+  0.0     021011 213  0.4+  0.3+    021112 246  0.2-  0.1+
020910 734  0.2+  0.0     021011 213  0.2-  0.8-    021112 246  0.0   0.1+
020910 850  0.3+  0.2-    021011 213  0.5-  0.2-    021112 048  0.9+  0.0
020910 734  0.2+  0.1+    021012 704  0.2-  0.3+    021112 246  0.2-  0.2+
020910 734  0.0   0.0     021012 704  0.4-  0.4+    021114 704  0.1-  0.9+
020910 734  0.0   0.1-    021012 704  0.4-  0.4+    021114 704  0.3-  0.5+
020910 848  0.5+  0.6+    021012 704  0.3-  0.4+    021114 704  0.7+  0.7+
020910 848  0.5-  1.1+    021012 704  0.3-  0.3+    021114 704  0.4-  0.5+
020910 848  1.2+  1.3+    021012 367  0.2+  0.8+    021114 704  0.3-  0.4+
020910 848  0.2+  1.1+    021012 367  0.3+  0.0     021121 046  0.6-  0.6-
020910 658  0.2-  0.3+    021012 367  0.2+  0.7+    021121 046  0.9-  0.3-
020910 658  0.2-  0.3+    021013 349  0.5-  0.1-    021121 046  0.3-  0.8-
020910 658  0.1-  0.2+    021013 349  0.9-  0.3+    021121 046  0.7-  0.5+
020911 850  0.4+  0.4-    021013 349  0.4+  0.1+    021121 046  0.6+  0.4+
020911 850  0.2-  0.1+    021013 349  0.3+  0.3+    021121 213  0.7-  1.1+
020911 850  0.1-  0.3+    021014 367  0.3+  1.0-    021121 213  0.5-  0.2+
020911 848  0.3+  0.3+    021014 367  0.2-  1.0-    021121 213  0.4-  0.2+
020911 848  1.0+  0.2+    021014 367  0.6+  1.2-    021122 232  0.9+  1.1+
020911 848  0.5+  0.9-    021014 360  0.3+  0.1-    021122 232  0.5+  0.6+
020911 848  0.2+  0.3+    021014 360  0.1+  0.0     021122 232  0.2+  0.6+
020912 557  0.3-  0.1+    021016 699  1.0-  0.7+    021123 644  0.1-  0.6+
020912 557  0.1+  0.1+    021016 699  1.3+  0.1+    021123 644  0.4-  0.5+
020912 557  0.3-  0.5+    021016 699  0.4+  0.6-    021123 644  0.1+  0.5+
020912 118  0.4+  0.4+    021016 699  0.9+  0.4+    021125 670  0.2-  0.1+
020912 118  0.7-  0.4+    021016 699  0.2+  0.4-    021125 670  0.4+  0.3+
020912 118  0.5-  0.2+    021016 699  0.0   0.1-    021125 670  0.5-  0.5-
020912 118  0.8-  0.7+    021016 699  0.9+  0.2-    021128 340  1.3+  0.8+
020912 850  0.6-  0.2-    021016 699  0.8+  0.0     021128 340  1.1+  0.0
020912 850  0.0   0.3+    021016 355  0.2-  0.8-    021128 340  1.1+  0.2-
020912 850  0.3-  0.1+    021016 355  0.2-  0.2+    021128 340  0.0   0.1+
020913 J95  0.5-  0.2+    021016 355  0.2+  0.2-    021128 355  0.3+  0.4-
020913 246  0.2-  0.5+    021019 232  0.9-  1.0-    021128 355  0.5+  0.4-
020913 246  0.6-  0.6+    021019 J95  0.2-  0.5+    021128 355  0.7+  0.2-
020913 246  0.4-  0.7+    021019 J95  0.0   0.0     021128 360  0.0   0.2-
020913 246  0.7-  0.7+    021019 J95  0.2+  0.3-    021128 360  0.1+  0.3-
020913 246  1.0-  0.7+    021019 213  1.2-  1.5-    021128 938  0.7+  0.1+
020913 246  0.7-  0.8+    021019 213  1.7-  0.0     021128 938  0.2+  0.4+
020913 J95  1.7-  0.5+    021025 232  0.2+  0.0     021128 938  0.3-  0.2+
020913 557  0.3+  0.1+    021025 232  0.2+  1.3+    021128 458 (2.2-  1.0-)
020913 557  0.1+  0.1+    021025 232  1.0+  0.3+    021128 213  0.5+  1.2-
020913 557  0.0   0.1+    021028 670  0.1-  0.1+    021128 458  1.4-  0.7+
020913 113  0.3-  0.0     021028 670  0.2+  0.3+    021128 213  1.3+  0.6-
020913 557  0.2+  0.1+    021028 670  0.8+  0.1-    021129 232  0.8+  0.8-
020913 113  0.5-  0.1+    021028 608  0.4-  0.6-    021129 232  0.1-  0.2+
020913 113  0.0   0.3+    021028 608  0.0   0.7-    021129 232  1.2-  0.5+
020913 704  0.2+  0.7-    021028 608  0.3-  0.5-    021201 H43  1.1+  1.2-
020913 704  0.0   1.2-    021029 340  0.4+  0.0     021201 H43  1.1+  0.5-
020913 704  0.3-  1.1-    021029 340  0.4+  0.7-    021201 A46  0.2+  0.3+
020913 675  0.8-  0.0     021029 340  0.2+  0.1-    021201 A46  0.0   0.2+
020913 675  0.8-  0.1-    021030 049  1.5+  1.2-    021201 A46  0.2+  0.2+
020913 704  0.7+  1.4-    021030 049  1.2+  0.9-    021201 A46  0.4-  0.6-
020913 675  0.8-  0.1-    021030 049  1.3+  1.0-    021201 A46  0.7-  0.7-
020914 151  0.2+  0.2+    021101 644  0.3+  0.1+    021201 A46  0.9-  0.1-
020914 151  0.4-  0.0     021101 644  0.4+  0.1-    021201 A46  0.2-  0.7-
020914 151  0.2-  0.4+    021101 644  0.4+  0.2+    021201 A46  0.0   0.2-
020914 151  0.2+  0.4+    021101 213  0.5+  0.3-    021201 A46  0.0   0.0
020914 118  0.4-  0.5+    021101 213  0.0   0.2-    021201 A46  0.4-  0.4-
020914 118  0.1-  0.3+    021103 349  0.4-  0.1+    021201 A46  0.4-  0.2-
020914 246  0.2+  0.2+    021103 349  0.2-  0.0     021201 246  0.2-  0.5+
020914 246  0.1+  0.1+    021103 349  0.3+  0.2+    021201 246  0.0   0.3+
020914 118  0.3+  0.1+    021103 349  0.2+  0.3-    021201 246  0.1+  0.4+
020914 246  0.2+  0.3+    021103 349  0.4-  0.4+    021201 246  0.1-  0.5+
020914 118  0.0   0.3+    021104 644  0.0   0.2+    021202 785  1.1-  0.2+
020914 246  0.1+  0.1+    021104 644  0.1+  0.0     021202 785  0.6-  0.1+
020914 246  0.2+  0.2+    021104 644  0.1+  0.2+    021202 785  0.5+  0.6+
020914 246  0.2+  0.1+    021104 349  0.1-  0.0     021202 785  0.2+  0.6+
020914 675  0.2-  0.1+    021104 349  0.3-  0.2-    021202 785  1.3-  1.1-
020914 675  0.2-  0.2+    021104 349  0.5-  0.4+    021202 785  0.3+  0.8+
020914 675  0.2-  0.2+    021104 349  0.5-  0.4+    021202 704  0.1-  0.1-
020915 170  0.9+  1.9+    021105 704  0.3+  0.0     021202 704  0.4+  0.0
020916 159  0.5+  0.5+    021105 704  0.3-  0.2-    021202 704  0.3+  0.2-
020916 159  0.2+  0.8+    021105 704  0.1-  0.1-    021202 704  0.6+  0.5-
020916 159  1.4+  0.9+    021105 704  0.4+  0.1-    021202 704  0.0   0.1-

